Volver al catálogo

DIAMANT B-P4 DEB

ActivoLEO
NORAD 7654·DEBRIS·🇫🇷 France

Lanzado Feb 6, 1975 desde Guiana Space Centre

Loading…

Próximos Pases (próximas 24 horas)

TLE

ActualizadoSource: Space-Track

Época: Sep 14, 2026, 03:53 UTC

1 07654U 75010C   26257.16201493  .00000135  00000-0  18325-3 0  9994
2 07654  49.8435 185.6073 0171976  36.3564 324.8876 13.95879108622385

Sigue DIAMANT B-P4 DEB en tiempo real con AllMySat

Download on the App Store